• Em Portugal
  • Lista de países
  • Para 7 dias
  • Temperatura da água
  • Mapas de satélite
  • Mapa do tempo
  • Widgets de tempo
  • user-avatar
    Iniciar Sessão

    Previsão horária em Laczna

    Hoje, 23 Setembro, Domingo

    Tempo Temperatura Precipitação Vento Pressão Humidade
    00:00 +11°C° 0 mm 3 m/s 731 mmHg 68%
    01:00 +12°C° 0 mm 5 m/s 731 mmHg 66%
    02:00 +11°C° 0 mm 4 m/s 731 mmHg 69%
    03:00 +11°C° 0 mm 4 m/s 730 mmHg 72%
    04:00 +10°C° 0 mm 3 m/s 730 mmHg 75%
    05:00 +10°C° 0 mm 3 m/s 730 mmHg 75%
    06:00 +11°C° 0 mm 4 m/s 730 mmHg 75%
    07:00 +11°C° 0 mm 4 m/s 730 mmHg 75%
    08:00 +12°C° 0 mm 4 m/s 730 mmHg 71%
    09:00 +13°C° 0 mm 4 m/s 730 mmHg 67%
    10:00 +13°C° 0 mm 4 m/s 730 mmHg 63%
    11:00 +14°C° 0 mm 5 m/s 729 mmHg 65%
    12:00 +14°C° 0 mm 5 m/s 728 mmHg 66%
    13:00 +14°C° 0 mm 5 m/s 728 mmHg 68%
    14:00 +13°C° 0.2 mm 5 m/s 727 mmHg 73%
    15:00 +13°C° 0.2 mm 5 m/s 725 mmHg 78%
    16:00 +12°C° 0.2 mm 5 m/s 724 mmHg 83%
    17:00 +13°C° 0.2 mm 6 m/s 723 mmHg 83%
    18:00 +13°C° 0.2 mm 8 m/s 721 mmHg 82%
    19:00 +15°C° 0.2 mm 9 m/s 720 mmHg 82%
    20:00 +15°C° 2.4 mm 8 m/s 719 mmHg 85%
    21:00 +14°C° 2.4 mm 6 m/s 719 mmHg 88%
    22:00 +14°C° 2.4 mm 5 m/s 719 mmHg 91%
    23:00 +11°C° 1.5 mm 6 m/s 721 mmHg 90%

    Amanhã, 24 Setembro, Segunda-feira

    Tempo Temperatura Precipitação Vento Pressão Humidade
    00:00 +10°C° 1.5 mm 7 m/s 722 mmHg 89%
    01:00 +7°C° 1.5 mm 9 m/s 723 mmHg 88%
    02:00 +7°C° 0.2 mm 8 m/s 725 mmHg 87%
    03:00 +6°C° 0.2 mm 7 m/s 727 mmHg 87%
    04:00 +7°C° 0.2 mm 6 m/s 728 mmHg 86%
    05:00 +6°C° 0 mm 7 m/s 729 mmHg 84%
    06:00 +6°C° 0 mm 7 m/s 730 mmHg 82%
    07:00 +6°C° 0 mm 8 m/s 730 mmHg 81%
    08:00 +6°C° 0.1 mm 8 m/s 731 mmHg 77%
    09:00 +6°C° 0.1 mm 8 m/s 733 mmHg 73%
    10:00 +7°C° 0.1 mm 9 m/s 734 mmHg 69%
    11:00 +7°C° 0.1 mm 9 m/s 734 mmHg 65%
    12:00 +8°C° 0.1 mm 9 m/s 734 mmHg 61%
    13:00 +8°C° 0.1 mm 9 m/s 735 mmHg 58%
    14:00 +8°C° 0.1 mm 9 m/s 735 mmHg 56%
    15:00 +8°C° 0.1 mm 9 m/s 735 mmHg 55%
    16:00 +8°C° 0.1 mm 9 m/s 735 mmHg 54%
    17:00 +7°C° 0 mm 8 m/s 735 mmHg 58%
    18:00 +7°C° 0 mm 6 m/s 736 mmHg 61%
    19:00 +6°C° 0 mm 5 m/s 736 mmHg 65%
    20:00 +5°C° 0 mm 5 m/s 737 mmHg 66%
    21:00 +5°C° 0 mm 5 m/s 737 mmHg 67%
    22:00 +5°C° 0 mm 5 m/s 738 mmHg 68%
    23:00 +3°C° 0 mm 5 m/s 738 mmHg 70%

    Depois de amanhã, 25 Setembro, Terça-feira

    Tempo Temperatura Precipitação Vento Pressão Humidade
    00:00 +4°C° 0 mm 4 m/s 739 mmHg 72%
    01:00 +4°C° 0 mm 4 m/s 739 mmHg 74%
    02:00 +3°C° 0 mm 4 m/s 739 mmHg 76%
    03:00 +3°C° 0 mm 4 m/s 740 mmHg 79%
    04:00 +2°C° 0 mm 3 m/s 740 mmHg 81%
    05:00 +3°C° 0 mm 3 m/s 740 mmHg 81%
    06:00 +3°C° 0 mm 3 m/s 741 mmHg 80%
    07:00 +3°C° 0 mm 3 m/s 742 mmHg 80%
    08:00 +5°C° 0 mm 4 m/s 742 mmHg 73%
    09:00 +6°C° 0 mm 4 m/s 743 mmHg 66%
    10:00 +8°C° 0 mm 5 m/s 743 mmHg 59%
    11:00 +10°C° 0 mm 4 m/s 743 mmHg 56%
    12:00 +10°C° 0 mm 4 m/s 743 mmHg 52%
    13:00 +11°C° 0 mm 4 m/s 743 mmHg 49%
    14:00 +11°C° 0 mm 4 m/s 743 mmHg 49%
    15:00 +11°C° 0 mm 4 m/s 743 mmHg 49%
    16:00 +11°C° 0 mm 4 m/s 743 mmHg 50%
    17:00 +9°C° 0 mm 3 m/s 743 mmHg 55%
    18:00 +8°C° 0 mm 2 m/s 743 mmHg 61%
    19:00 +6°C° 0 mm 2 m/s 744 mmHg 67%
    20:00 +6°C° 0 mm 1 m/s 744 mmHg 68%
    21:00 +6°C° 0 mm 1 m/s 744 mmHg 69%
    22:00 +6°C° 0 mm 1 m/s 744 mmHg 70%
    23:00 +5°C° 0 mm 1 m/s 744 mmHg 70%

    26 Setembro, Quarta-feira

    Tempo Temperatura Precipitação Vento Pressão Humidade
    00:00 +5°C° 0 mm 1 m/s 744 mmHg 71%
    01:00 +5°C° 0 mm 1 m/s 744 mmHg 71%
    02:00 +5°C° 0 mm 1 m/s 744 mmHg 72%
    03:00 +4°C° 0 mm 1 m/s 744 mmHg 72%
    04:00 +4°C° 0 mm 1 m/s 743 mmHg 73%
    05:00 +4°C° 0 mm 2 m/s 743 mmHg 72%
    06:00 +4°C° 0 mm 2 m/s 743 mmHg 72%
    07:00 +5°C° 0 mm 2 m/s 743 mmHg 71%
    08:00 +7°C° 0 mm 2 m/s 743 mmHg 64%
    09:00 +9°C° 0 mm 3 m/s 743 mmHg 57%
    10:00 +11°C° 0 mm 3 m/s 743 mmHg 49%
    11:00 +12°C° 0 mm 4 m/s 743 mmHg 47%
    12:00 +13°C° 0 mm 4 m/s 742 mmHg 44%
    13:00 +14°C° 0 mm 4 m/s 742 mmHg 42%
    14:00 +14°C° 0 mm 4 m/s 741 mmHg 44%
    15:00 +14°C° 0 mm 4 m/s 740 mmHg 46%
    16:00 +13°C° 0 mm 4 m/s 740 mmHg 48%
    17:00 +12°C° 0 mm 4 m/s 740 mmHg 51%
    18:00 +11°C° 0 mm 3 m/s 739 mmHg 54%
    19:00 +10°C° 0 mm 3 m/s 739 mmHg 57%
    20:00 +9°C° 0 mm 3 m/s 739 mmHg 58%
    21:00 +9°C° 0 mm 3 m/s 739 mmHg 58%
    22:00 +9°C° 0 mm 3 m/s 739 mmHg 59%
    23:00 +8°C° 0 mm 3 m/s 739 mmHg 60%

    27 Setembro, Quinta-feira

    Tempo Temperatura Precipitação Vento Pressão Humidade
    00:00 +8°C° 0 mm 3 m/s 739 mmHg 61%
    01:00 +8°C° 0 mm 3 m/s 738 mmHg 62%
    02:00 +8°C° 0 mm 3 m/s 738 mmHg 61%
    03:00 +8°C° 0 mm 3 m/s 738 mmHg 61%
    04:00 +8°C° 0 mm 3 m/s 738 mmHg 60%
    05:00 +9°C° 0 mm 3 m/s 738 mmHg 61%
    06:00 +9°C° 0 mm 3 m/s 738 mmHg 61%
    07:00 +10°C° 0 mm 3 m/s 738 mmHg 61%
    08:00 +12°C° 0 mm 3 m/s 738 mmHg 57%
    09:00 +14°C° 0 mm 3 m/s 738 mmHg 54%
    10:00 +17°C° 0 mm 3 m/s 738 mmHg 51%
    11:00 +18°C° 0 mm 4 m/s 738 mmHg 50%
    12:00 +19°C° 0 mm 4 m/s 738 mmHg 50%
    13:00 +20°C° 0 mm 4 m/s 738 mmHg 50%
    14:00 +20°C° 0 mm 3 m/s 737 mmHg 51%
    15:00 +20°C° 0 mm 3 m/s 737 mmHg 53%
    16:00 +20°C° 0 mm 3 m/s 736 mmHg 55%
    17:00 +18°C° 0 mm 2 m/s 736 mmHg 59%
    18:00 +16°C° 0 mm 2 m/s 736 mmHg 63%
    19:00 +15°C° 0 mm 2 m/s 735 mmHg 68%
    20:00 +14°C° 0 mm 2 m/s 735 mmHg 68%
    21:00 +14°C° 0 mm 2 m/s 735 mmHg 68%
    22:00 +14°C° 0 mm 2 m/s 735 mmHg 68%
    23:00 +13°C° 0 mm 2 m/s 734 mmHg 69%

    28 Setembro, Sexta-feira

    Tempo Temperatura Precipitação Vento Pressão Humidade
    00:00 +13°C° 0 mm 2 m/s 734 mmHg 70%
    01:00 +13°C° 0 mm 2 m/s 734 mmHg 71%
    02:00 +13°C° 0 mm 2 m/s 733 mmHg 72%
    03:00 +12°C° 0 mm 2 m/s 733 mmHg 72%
    04:00 +12°C° 0 mm 2 m/s 733 mmHg 72%
    05:00 +12°C° 0 mm 2 m/s 733 mmHg 71%
    06:00 +12°C° 0 mm 2 m/s 732 mmHg 70%
    07:00 +12°C° 0 mm 2 m/s 732 mmHg 69%
    08:00 +14°C° 0 mm 2 m/s 732 mmHg 62%
    09:00 +16°C° 0 mm 2 m/s 733 mmHg 56%
    10:00 +18°C° 0 mm 2 m/s 733 mmHg 50%
    11:00 +19°C° 0 mm 2 m/s 732 mmHg 47%
    12:00 +20°C° 0 mm 2 m/s 732 mmHg 45%
    13:00 +21°C° 0 mm 2 m/s 732 mmHg 43%
    14:00 +21°C° 0 mm 2 m/s 732 mmHg 45%
    15:00 +20°C° 0 mm 2 m/s 732 mmHg 47%
    16:00 +20°C° 0 mm 2 m/s 732 mmHg 50%
    17:00 +18°C° 0 mm 2 m/s 732 mmHg 58%
    18:00 +16°C° 0 mm 2 m/s 732 mmHg 67%
    19:00 +14°C° 0 mm 2 m/s 732 mmHg 76%
    20:00 +13°C° 0 mm 2 m/s 732 mmHg 81%
    21:00 +13°C° 0 mm 1 m/s 732 mmHg 85%
    22:00 +12°C° 0 mm 1 m/s 732 mmHg 90%
    23:00 +12°C° 0 mm 1 m/s 733 mmHg 91%
    Mostrar mais